IRIDIUM 33 DEB, 35052

Orbit data source: Space-Track

IRIDIUM 33 DEB, 35052 is space debris in LEO originally from a launch on Sun, 14 Sep 1997 UTC launched from the Tyuratam Missile And Space Complex (TTMTR). The debris from Iridium 33, an American commercial communications satellite, has been tracked extensively since its accidental collision with the defunct Russian satellite Cosmos 2251 in 2009. This event, occurring at high speed in low Earth orbit (LEO), generated thousands of pieces of space debris, significantly increasing the risk of further collisions. The Iridium 33 debris cloud has impacted space traffic management and orbital debris mitigation strategies, making it a subject of ongoing study in space situational awareness.

Loading next visibility...
Identifier
35052, 1997-051NY
Orbit
LEO
Country
Flag of USUS
Related business
Manufacturer
Unknown
Mission
Spacecraft
Bus & Motor
Unknown
Mass
Unknown
Launch date (UTC)
1997-09-14 (28 years ago)
Launch vehicle
Unknown
Launch site
Tyuratam Missile And Space Complex (TTMTR)
Object type
Payload
Rocket body
Debris
Shape & HBR
Unknown shape, 0.1 m
Radar Cross Section
Small (<0.1 m²)

Expand to show TLE details & history
Last TLE update: 9 hours ago

TLE from 9 hours ago
0 IRIDIUM 33 DEB
1 35052U 97051NY  25310.68675302  .00000976  00000-0  31368-3 0  9991
2 35052  86.3337  35.9237 0011110 191.3885 168.7063 14.38422424867573
Epoch: 2025-11-06T16:28Z
TLE epoch observation values (Epoch: 2025-11-06T16:28:55.460Z)
Latitude
-0.0001°
Longitude
102.55111°
Altitude
774.555 km
Speed
7.463 km/s
True Right ascension
02h 23m 41s
True Declination
0° 00' 00"
Sunlit
Object was in full shadow at epoch
Visualization orbit readout
Latitude
Unknown
Longitude
Unknown
Altitude
Unknown
Speed
Unknown
Apparent Right ascension
Unknown
Apparent Declination
Unknown
Sunlit
N/A
Visualization observer readout
Local Sidereal Time
21:59:58
Azimuth
Unknown
Elevation
Unknown
Doppler factor
Unknown
Orbital elements
Apogee altitude
768.607 km
Perigee altitude
752.744 km
Semi-major axis
7,138.812 km
Eccentricity
0.00111
Inclination
86.3337°
RAAN
35.9237°
Arg. of periapsis
191.3885°
True anomaly
168.7312°
Mean anomaly
168.7063°
Eccentric anomaly
168.71875°
Mean motion
3.59836 °/min
Orbital period
100.05 mins
BSTAR
0.00031368
Loading maneuver chart data...
Computing Atmospheric mass density...

Documentation

Showing up to 5 results
|